Lapse_Rate
3.2 3.2 3.4 3.5 3.7 4.1 4.4 4.5 4.5 4.6 4.8 5.1 4.9 4.9 5.3 5.5 5.9 6.5 6.6 6.9 6.9 7.2 8.2 7.9 8.1 7.5 8.5 7.7 7.8 9.8 9.7 9.7 9.7 9.4 8.6 8.1 7.4 7.0 6.5 6.5 6.5 6.5 6.5 7.0 7.1 7.0 6.9
3.1 3.0 3.2 3.2 3.1 3.4 3.9 4.3 4.3 4.5 4.8 4.7 4.8 4.8 5.1 5.5 5.9 6.4 6.7 6.8 6.5 6.9 8.0 8.7 8.3 7.7 8.2 6.7 9.7 9.8 9.6 9.6 9.5 9.1 8.6 8.4 7.7 7.7 6.6 6.5 6.5 6.6 6.7 6.7 7.0 7.0 7.0
3.3 3.1 3.0 3.2 3.0 3.0 3.3 3.7 4.0 4.4 4.8 4.5 4.4 4.5 4.8 5.4 6.0 6.4 6.6 7.0 6.4 7.0 7.7 8.4 9.1 9.6 8.0 7.7 9.7 9.5 9.7 9.3 9.2 9.1 8.2 8.6 8.5 7.5 7.1 6.5 7.1 6.8 6.5 6.5 6.5 6.7 6.5
3.3 3.1 3.1 3.2 3.2 3.3 3.2 3.2 3.5 3.9 4.4 4.3 3.9 4.0 4.3 5.3 5.4 6.0 6.1 6.4 6.2 6.7 7.5 7.9 8.7 9.1 7.4 9.4 9.6 9.6 9.6 9.2 9.5 9.3 8.9 8.9 8.7 7.7 7.1 7.2 6.6 6.5 6.5 6.5 6.5 6.5 6.6
3.0 3.0 2.9 3.0 3.1 3.2 3.1 3.0 2.9 3.4 3.8 3.8 3.9 3.5 3.9 4.8 4.9 4.9 4.4 5.2 6.1 6.5 7.2 8.2 7.7 8.2 6.9 9.4 8.5 9.0 9.4 8.6 8.8 8.8 8.9 9.1 8.3 7.1 6.9 6.5 6.5 6.5 6.5 6.5 6.5 6.5 6.5
2.7 2.7 2.6 2.7 2.7 2.8 2.8 2.8 2.8 3.0 3.2 3.5 3.5 3.2 3.4 4.3 4.6 5.0 4.3 5.6 7.2 7.0 8.7 8.1 9.1 7.2 7.9 7.6 8.4 8.7 9.3 9.0 8.0 7.7 7.7 7.5 6.8 6.5 6.5 6.5 6.5 6.5 6.5 6.5 6.5 6.5 6.5
2.4 2.4 2.4 2.4 2.6 2.5 2.5 2.6 2.6 2.8 2.8 2.9 3.3 3.1 3.2 3.7 4.6 5.9 6.4 7.4 7.2 7.6 7.8 7.3 7.5 7.5 7.9 8.6 8.9 8.3 8.9 8.3 8.0 7.2 6.5 6.7 6.5 6.5 6.5 6.5 6.5 6.5 6.5 6.5 6.5 6.5 6.5
2.2 2.3 2.3 2.4 2.5 2.5 2.3 2.3 2.4 2.5 2.5 2.6 2.8 3.0 3.1 3.6 4.4 6.3 6.4 6.6 6.0 6.1 6.7 8.0 8.1 8.0 8.6 8.5 7.3 7.8 8.5 7.2 6.8 6.5 6.5 6.5 6.5 6.5 6.5 6.5 6.5 6.5 6.5 6.5 6.5 6.5 6.5
2.1 2.2 2.3 2.3 2.3 2.3 2.1 2.0 2.2 2.4 2.3 2.4 2.5 3.0 2.9 3.3 4.2 6.2 5.3 5.1 6.3 7.5 6.6 7.1 7.7 7.7 7.7 8.1 7.1 7.1 7.6 7.3 6.5 6.5 6.5 6.5 6.5 6.5 6.5 6.5 6.5 6.5 6.5 6.5 6.5 6.5 6.5
2.1 2.2 2.2 2.1 2.0 2.1 2.1 2.0 2.0 2.1 2.0 2.1 2.4 2.9 3.0 3.1 5.0 7.3 6.3 6.3 6.2 7.0 6.5 6.5 6.7 7.5 7.9 7.5 6.6 8.1 7.8 7.4 6.6 6.5 6.5 6.5 6.5 6.5 6.5 6.5 6.5 6.5 6.5 6.5 6.5 6.5 6.5
2.0 2.2 2.2 2.0 1.8 1.9 1.9 1.9 1.8 1.9 1.8 1.9 2.0 2.6 2.9 2.9 6.3 6.5 5.6 5.7 5.9 6.4 6.5 6.5 6.7 8.3 7.8 6.8 6.9 6.9 7.6 7.2 6.5 6.5 6.5 6.5 6.5 6.5 6.5 6.5 6.5 6.5 6.5 6.5 6.5 6.5 6.5
2.0 1.9 1.9 1.8 1.7 1.7 1.7 1.8 1.7 1.7 1.6 1.6 1.6 2.1 2.9 3.8 6.5 4.8 4.3 4.7 5.6 6.5 6.5 6.5 6.7 6.5 6.5 6.6 6.7 6.9 7.0 7.4 7.4 6.5 6.5 6.5 6.3 6.5 6.5 6.5 6.5 6.5 6.5 6.5 6.5 6.5 6.5
1.9 1.8 1.9 1.8 1.6 1.5 1.6 1.6 1.6 1.7 1.3 1.3 1.3 1.8 3.0 4.5 3.7 3.9 3.7 4.7 6.5 6.5 6.5 6.5 6.5 6.5 6.5 6.5 6.5 6.5 6.5 6.5 6.5 6.5 6.5 6.5 6.5 6.5 6.4 6.5 6.5 6.5 6.5 6.5 6.5 6.5 6.5
1.9 1.8 1.9 1.6 1.6 1.3 1.3 1.4 1.3 1.3 1.0 0.8 1.0 1.4 4.4 5.2 3.7 3.8 3.5 6.4 6.5 6.5 6.5 6.5 6.5 6.5 6.5 6.5 6.5 6.5 6.5 6.5 6.5 6.5 6.5 6.5 6.5 6.5 6.5 6.5 6.5 6.5 6.5 6.5 6.5 6.5 6.5
2.0 1.8 1.8 1.5 1.5 1.2 1.0 1.0 1.0 1.0 0.6 0.5 0.8 3.2 5.3 4.1 3.6 3.4 5.4 6.5 6.5 6.5 6.5 6.5 6.5 6.5 6.5 6.5 6.5 6.5 6.5 6.5 6.5 6.5 6.5 6.5 6.5 6.5 6.5 6.5 6.5 6.5 6.5 6.5 6.5 6.5 6.5
1.8 1.8 1.8 1.5 1.2 1.0 0.8 0.8 0.8 0.8 0.6 0.4 2.5 5.1 4.6 3.9 3.7 4.0 6.3 6.5 6.5 6.7 6.6 6.5 6.5 6.5 6.5 6.5 6.5 6.5 6.5 6.5 6.5 6.5 6.3 6.5 6.5 6.5 6.5 6.4 6.4 6.5 6.5 6.5 6.5 6.5 6.5
1.8 1.8 1.7 1.4 0.9 0.7 0.9 0.7 0.5 0.5 0.5 0.8 2.6 5.8 4.0 4.0 3.2 5.5 6.5 6.5 6.5 7.1 7.1 6.5 6.5 6.5 6.5 6.5 6.5 6.5 6.5 6.5 6.5 6.5 6.1 6.5 6.5 6.5 6.5 6.5 6.5 6.5 6.5 6.5 6.5 6.5 6.5
1.8 1.7 1.6 1.4 1.0 0.6 0.7 0.9 0.7 0.2 -0.0 2.3 4.0 6.1 3.7 3.5 5.8 5.5 6.5 6.5 6.3 6.7 7.2 6.7 6.6 6.5 6.5 6.5 6.5 6.5 6.5 6.5 6.3 6.4 6.5 6.5 6.5 6.5 6.5 6.5 6.5 6.5 6.5 6.5 6.5 6.5 6.5
1.7 1.7 1.6 1.5 1.3 0.9 0.7 0.8 0.9 0.6 0.1 0.0 5.9 5.7 4.7 3.7 6.5 6.5 6.5 6.5 6.8 6.5 6.5 6.5 6.5 6.5 6.5 6.5 6.5 6.5 6.5 6.1 6.2 6.4 6.5 6.5 6.5 6.5 6.5 6.5 6.5 6.5 6.5 6.5 6.5 6.5 6.5
1.7 1.5 1.5 1.5 1.3 1.2 1.0 1.2 1.1 0.8 1.0 0.9 5.4 6.5 5.5 5.0 6.2 6.5 6.5 6.5 6.5 6.8 6.7 6.8 6.5 6.4 6.5 6.5 6.5 6.5 6.5 6.5 6.4 6.4 7.2 6.3 6.5 6.5 6.5 6.5 6.5 6.5 6.5 6.5 6.5 6.5 6.5
1.5 1.4 1.3 1.2 1.3 1.2 1.3 1.4 1.3 1.0 1.8 1.8 4.0 6.2 4.9 6.5 6.2 6.2 6.5 6.5 6.5 6.5 6.7 6.9 6.5 6.5 6.5 6.5 6.5 6.5 6.5 6.5 6.5 7.0 6.1 6.5 6.5 6.5 6.5 6.5 6.5 6.5 6.5 6.5 6.5 6.5 6.5
1.5 1.5 1.4 1.1 1.2 1.2 1.3 1.5 1.5 1.4 3.0 2.4 4.6 4.3 5.1 5.3 6.3 6.4 6.5 6.5 6.5 6.5 6.5 6.5 6.5 6.5 6.5 6.5 6.5 6.5 6.5 6.5 6.5 5.4 6.5 6.4 6.5 6.5 6.5 6.5 6.5 6.5 6.5 6.5 6.5 6.5 6.5
1.6 1.6 1.5 1.3 1.1 1.1 1.2 1.5 1.3 1.6 3.5 3.9 4.7 4.8 5.4 6.0 6.0 6.5 6.5 6.5 6.5 6.6 6.0 6.4 5.9 6.4 6.5 6.3 5.1 5.6 6.0 5.9 5.5 6.4 6.5 6.5 6.5 6.5 6.5 6.5 6.5 6.5 6.5 6.5 6.5 6.5 6.5
1.9 1.7 1.7 1.6 1.5 1.2 1.4 1.7 1.5 1.7 2.5 3.2 2.6 4.1 4.9 6.5 5.8 6.5 6.0 6.6 6.5 6.3 6.4 6.0 4.9 5.8 6.0 6.3 6.4 6.2 6.2 6.7 6.2 6.1 5.8 6.5 6.5 6.5 6.5 6.5 6.5 6.5 6.5 6.5 6.5 6.5 6.5
2.4 2.1 1.9 2.1 1.8 1.5 1.4 1.7 1.9 1.4 2.0 1.8 2.9 4.1 3.7 6.5 5.6 5.8 6.3 6.3 5.1 4.6 5.8 6.1 6.0 5.7 5.0 5.9 6.5 6.5 6.5 6.5 6.5 6.5 6.3 4.7 6.5 6.5 6.5 6.5 6.5 6.5 6.5 6.5 6.5 6.5 6.5
2.5 2.5 2.0 2.1 2.0 2.1 1.7 1.9 2.0 1.6 1.5 2.8 1.7 3.3 3.6 5.7 6.2 5.1 5.7 6.5 6.4 6.5 5.7 6.1 5.4 4.3 4.9 5.6 6.5 6.5 6.5 6.5 6.5 6.5 6.4 6.5 6.5 6.5 6.5 6.5 6.5 6.5 6.5 6.5 5.4 6.5 5.3
2.9 2.8 2.2 1.8 2.4 1.9 2.0 2.1 2.1 2.1 1.8 2.3 2.2 3.4 5.3 6.0 4.9 5.6 5.2 5.8 4.7 5.0 6.5 4.7 4.5 4.4 4.3 6.5 6.5 6.5 6.5 6.5 6.5 6.5 6.5 6.5 6.5 6.5 6.5 6.5 6.5 6.5 5.3 6.2 6.5 6.5 4.5
3.0 2.9 2.4 1.8 2.1 1.8 2.2 2.0 2.1 2.5 2.2 2.6 2.7 3.4 5.0 5.1 5.1 4.9 5.6 3.4 3.4 4.3 6.5 3.4 4.9 4.0 5.7 6.5 6.5 6.5 6.5 6.5 6.5 6.5 6.5 6.5 6.5 6.5 6.5 6.5 6.5 3.7 6.5 6.5 4.8 2.5 3.4
3.1 2.8 2.7 2.2 2.1 2.1 1.9 2.1 2.5 2.8 3.1 2.4 3.3 3.1 3.8 4.0 3.8 4.3 5.5 5.3 6.3 5.8 4.9 2.1 4.8 4.4 4.3 6.5 6.5 6.5 6.5 6.5 6.5 6.5 6.5 6.5 6.5 6.5 6.5 6.5 4.5 4.2 2.6 0.5 -0.0 0.5 2.3
Wind_Speed
19 20 20 21 21 20 20 19 20 21 23 24 24 20 16 14 13 11 10 13 10 9 17 24 17 10 9 12 9 21 23 19 19 13 15 15 13 12 13 10 6 9 10 15 17 16 18
19 19 20 20 21 20 20 20 20 21 22 23 23 21 16 14 12 10 9 10 11 8 13 23 18 18 17 14 15 22 19 16 17 16 17 15 14 15 15 15 13 10 15 18 14 18 15
19 19 19 20 20 20 20 20 20 21 22 23 23 21 16 13 13 9 6 6 6 7 10 16 17 10 13 15 19 19 21 18 18 15 16 14 15 12 10 11 11 10 12 14 15 16 14
19 20 20 20 20 20 20 20 20 20 21 23 24 21 17 12 12 12 9 8 9 13 10 14 21 2 4 14 22 16 19 21 12 11 12 10 9 14 15 13 15 13 10 4 4 10 6
19 20 20 20 20 20 21 21 21 20 20 21 24 22 17 11 15 11 8 9 12 16 25 10 12 2 6 21 20 19 21 17 12 10 5 5 4 9 9 9 5 6 6 11 10 11 8
18 19 20 21 21 21 21 21 21 21 20 21 22 24 18 11 17 14 5 2 7 11 14 6 11 5 15 22 17 19 21 16 16 8 5 2 3 4 6 4 5 6 5 6 5 8 14
18 19 20 21 22 22 22 22 22 21 21 21 22 23 18 8 15 16 6 2 3 3 8 5 7 9 14 18 10 19 20 15 15 6 8 3 5 7 10 5 7 9 6 6 10 8 6
18 19 20 21 22 23 23 23 23 23 22 21 21 22 18 4 9 19 7 5 3 1 1 6 7 10 13 13 17 22 24 11 12 13 16 6 9 14 12 11 8 8 6 8 9 3 7
18 19 20 21 22 23 23 23 24 23 22 21 19 21 19 12 6 6 10 7 3 2 4 3 9 8 18 14 10 21 21 9 10 12 13 8 13 14 13 10 6 5 3 9 11 12 5
18 19 20 21 22 23 23 24 24 24 23 21 18 19 21 16 2 1 3 5 2 5 2 8 9 7 12 11 10 16 12 5 9 9 9 4 13 12 14 5 8 4 8 11 11 2 2
18 20 20 21 22 23 24 25 25 25 24 22 18 16 15 12 4 3 6 4 1 2 5 13 5 5 24 13 10 15 19 4 4 10 0 6 9 9 11 8 6 6 13 10 10 3 6
18 20 21 22 23 24 25 25 26 26 25 23 17 14 18 2 1 4 6 2 2 0 2 7 7 13 19 13 11 8 15 13 6 6 9 4 4 2 8 10 5 6 6 5 4 2 3
18 20 21 21 23 25 26 26 26 26 25 23 16 10 7 3 4 11 2 2 2 6 9 11 10 13 17 12 10 15 19 20 15 9 10 7 7 4 14 8 6 9 2 1 2 1 4
17 19 21 23 23 25 26 27 28 28 26 22 14 9 4 5 9 8 2 1 9 3 4 7 8 22 6 13 6 14 12 12 13 12 4 7 7 11 13 3 9 8 3 2 2 4 1
17 19 21 23 24 26 28 28 29 29 26 21 12 2 1 8 11 3 2 7 2 3 5 7 17 5 6 11 11 10 14 9 8 17 6 8 6 6 11 2 13 8 4 1 4 4 4
17 19 21 23 25 27 29 29 30 30 25 17 3 2 2 16 14 2 6 5 0 1 5 5 6 5 6 12 10 12 13 8 11 15 10 5 6 4 5 8 10 2 4 2 2 5 3
16 18 20 23 26 27 29 31 32 31 27 10 2 1 3 15 3 5 4 3 1 1 2 3 5 5 5 6 7 6 7 3 13 15 8 4 1 8 4 7 10 9 5 3 1 2 3
14 16 19 22 25 27 30 31 33 32 29 3 2 2 4 5 3 3 2 2 1 1 3 3 3 3 3 5 4 5 5 4 9 12 8 5 2 4 3 5 7 9 2 4 3 5 1
12 15 17 20 23 26 30 33 34 32 21 4 3 1 3 1 4 3 4 4 3 2 1 2 2 2 2 3 3 3 4 3 8 9 7 6 4 5 7 3 5 4 12 6 2 1 3
10 12 15 18 21 25 28 32 35 33 20 3 2 3 2 3 1 3 3 2 2 4 2 1 3 5 4 3 6 5 5 2 7 6 14 4 3 2 2 6 3 7 10 8 5 4 5
8 9 12 16 19 22 27 30 36 37 28 3 4 2 1 4 3 4 2 1 4 2 3 3 3 6 3 3 4 2 4 6 4 10 6 4 2 3 8 8 5 7 5 8 6 3 3
6 7 9 12 15 19 23 27 33 39 28 4 3 3 2 3 3 5 3 3 2 3 3 3 3 5 5 5 7 4 2 2 3 6 5 4 2 5 4 8 5 6 1 5 3 4 4
5 5 6 9 12 15 19 23 26 33 20 3 2 1 1 1 1 2 1 1 2 2 5 3 3 2 3 9 7 7 5 6 6 1 3 2 3 4 4 3 2 4 5 3 4 4 2
6 5 4 5 8 11 14 17 19 23 19 2 2 2 1 2 1 2 1 2 5 4 4 1 2 3 1 4 7 6 5 8 7 7 6 2 1 1 4 6 3 5 6 5 7 7 6
9 7 5 4 4 6 9 12 14 15 14 4 2 2 1 3 1 3 4 4 6 4 4 4 4 3 5 4 3 4 2 2 6 7 5 5 0 3 1 2 5 4 4 3 4 5 7
12 11 8 5 4 3 4 7 9 7 10 2 2 2 2 1 2 1 3 0 2 3 2 3 3 3 1 2 1 2 3 3 2 2 7 5 3 3 3 1 4 5 3 4 4 3 6
16 14 12 9 8 5 3 3 4 4 4 2 2 2 0 2 2 2 3 2 1 2 3 1 2 2 1 1 2 1 3 3 2 2 4 2 2 4 4 3 7 4 7 6 4 5 4
21 18 15 13 11 9 7 4 3 3 2 2 2 1 1 2 4 5 4 4 2 2 2 2 2 2 2 1 1 1 2 2 1 4 4 4 3 4 1 1 7 6 5 6 5 2 4
24 22 19 17 14 12 11 9 6 4 2 5 1 2 2 2 4 2 3 5 3 2 1 1 2 2 0 0 1 1 3 2 2 4 2 3 6 3 6 5 2 9 5 4 4 4 3
Wind_Direction
34 31 28 27 26 22 19 19 18 16 13 15 14 14 14 11 2 10 13 9 350 331 356 7 359 342 335 58 1 329 338 331 322 321 313 304 295 290 278 277 282 253 285 319 320 303 271
32 31 28 26 25 21 17 13 10 9 8 9 12 13 13 9 9 7 20 9 27 39 348 2 343 329 44 44 342 345 329 324 318 309 294 283 272 277 277 277 280 278 269 291 303 284 280
27 27 28 25 23 20 16 11 5 5 9 10 9 10 9 10 0 354 351 4 25 342 332 335 349 4 53 18 345 332 340 332 306 294 289 277 269 262 277 264 252 276 292 292 266 267 230
24 23 22 21 20 18 15 10 6 5 6 8 9 5 5 1 355 337 312 266 295 318 322 304 324 9 35 11 351 343 346 329 327 295 272 290 236 247 249 264 276 287 283 281 291 203 215
23 21 19 17 17 15 13 9 6 3 0 359 4 4 2 353 354 336 304 258 273 302 308 250 3 5 35 337 351 5 347 329 309 292 340 238 238 240 240 228 273 253 265 286 290 224 210
21 19 15 14 13 12 11 9 4 2 360 359 359 2 1 350 351 343 317 251 259 299 352 176 30 336 358 353 329 1 354 333 312 299 117 211 229 237 229 177 221 220 228 256 298 342 234
20 17 14 11 9 9 7 6 4 2 359 358 355 359 359 356 356 353 327 210 229 178 42 61 10 29 339 332 342 358 359 337 346 23 4 97 42 22 327 308 313 316 280 275 291 284 306
20 16 12 9 7 5 4 2 1 2 359 357 354 356 1 1 350 16 30 62 61 321 289 78 41 14 339 343 352 3 7 13 357 15 16 26 23 337 328 323 316 296 315 296 278 279 200
16 17 13 9 5 2 1 1 359 359 358 354 353 354 355 345 298 335 71 54 341 288 259 81 50 18 345 348 0 357 9 347 12 357 2 59 1 341 341 309 301 283 250 283 293 319 261
15 15 12 9 5 0 358 358 358 357 356 352 351 354 348 349 252 270 67 5 351 301 274 9 12 13 340 347 358 345 10 29 17 335 3 338 354 351 343 59 16 288 349 282 294 295 270
14 13 12 9 4 359 357 357 357 356 354 351 348 348 350 356 310 29 342 336 330 236 48 340 354 311 329 27 325 357 27 43 4 332 311 13 322 345 1 338 320 254 337 297 283 225 307
15 13 10 8 3 360 357 355 355 354 353 350 347 347 341 323 222 31 347 277 231 326 0 337 333 336 333 14 353 338 30 15 41 320 353 139 41 81 347 334 39 353 335 292 252 189 268
15 12 8 8 5 359 357 355 354 352 350 347 342 334 341 357 319 327 359 220 351 54 351 339 331 328 315 353 339 4 23 34 27 356 353 329 38 1 15 358 360 356 220 58 140 44 222
15 12 9 6 4 1 357 356 353 351 350 345 337 320 246 61 335 308 208 191 58 32 312 348 314 311 6 8 335 349 355 22 35 14 307 356 343 2 353 69 323 296 320 32 181 169 168
12 13 10 7 4 2 359 358 354 350 349 344 327 209 24 333 329 276 320 47 51 352 349 316 306 342 329 7 340 350 3 26 18 6 15 354 302 323 19 3 11 328 13 33 282 293 83
12 11 10 8 7 4 1 359 355 350 349 349 320 282 44 333 336 304 57 100 153 257 330 307 347 7 322 338 356 352 0 40 360 358 346 325 296 310 47 354 7 33 282 10 311 16 119
12 10 11 10 7 6 5 0 357 352 347 346 274 312 341 341 340 53 56 75 301 83 343 311 340 307 329 332 323 312 340 342 12 346 355 336 168 300 30 15 30 5 14 337 180 18 353
10 11 13 12 10 6 3 4 1 358 349 336 305 11 323 350 52 68 58 354 147 262 183 246 248 308 313 308 307 318 327 358 5 357 352 337 283 301 209 243 37 69 349 345 14 330 16
9 12 10 14 11 9 5 2 3 2 9 323 15 354 337 14 42 53 156 188 236 269 306 334 290 92 298 268 331 341 317 303 22 14 9 322 337 321 340 334 8 55 9 351 266 286 347
4 12 7 13 15 9 7 3 360 2 3 321 354 4 19 64 179 347 3 62 281 172 264 261 267 277 324 294 182 266 295 345 348 5 11 336 284 125 196 234 266 333 2 10 10 54 299
353 6 6 11 16 12 8 6 0 359 354 337 19 61 114 330 27 5 141 135 292 307 215 210 247 227 116 300 304 276 357 325 332 0 7 76 300 345 276 284 276 286 6 6 33 287 78
331 349 4 9 13 15 12 11 7 1 357 66 29 14 350 307 316 298 161 205 291 328 187 211 216 320 152 198 194 274 59 225 258 331 359 355 285 328 276 230 220 256 36 354 35 338 341
292 321 354 6 10 14 14 15 16 12 12 59 12 128 334 192 271 341 346 322 270 67 241 223 239 334 211 237 245 256 261 259 257 264 301 2 357 5 280 23 315 311 210 205 246 192 203
260 284 317 350 3 11 15 17 23 25 28 65 10 306 356 295 133 243 183 265 266 271 232 256 137 147 294 312 270 248 252 254 251 246 214 303 4 184 271 322 360 214 173 182 206 230 216
247 258 273 297 329 353 11 16 23 31 34 62 5 2 31 282 348 305 292 259 304 238 235 234 219 194 0 308 315 316 233 238 220 222 141 124 260 310 68 272 282 347 189 175 159 277 173
242 244 250 257 265 291 343 7 15 32 27 83 75 299 72 315 227 110 280 111 275 318 242 227 87 42 340 262 290 313 296 313 291 251 90 101 100 119 350 14 244 224 180 141 106 292 189
238 238 244 246 251 250 264 319 346 16 22 30 115 12 129 282 246 187 251 235 183 238 236 161 37 334 49 286 265 255 282 102 284 258 224 204 195 203 247 239 288 207 148 158 68 238 183
236 233 237 240 243 239 235 242 281 315 240 308 113 132 59 253 268 203 203 187 175 200 214 278 13 338 287 324 114 250 244 224 333 235 193 182 166 226 76 27 285 151 110 164 211 211 189
235 230 232 237 235 232 233 229 240 276 288 199 228 157 160 222 264 350 276 288 253 197 108 184 185 250 287 352 299 336 276 165 217 279 1 285 194 208 179 227 204 198 181 210 148 182 230